This demonstration page uses our WeatherBlox Daily Observations layout. Learn more.

Left ArrowRight Arrow

44.8408, -93.29828

Hourly Observations for July 12, 2022

Temp ( °F °C ) Dew Point ( °F °C ) Humidity (%) Winds ( mph kmh ) Pressure ( in mb ) Visibility ( mi km ) Precip ( " mm )
12:53 am 00:53 Clear 68 20 55 12.8 63 63 W 7 11 29.88 1012 10 16 0.00 0.00
1:53 am 01:53 Clear 68 20 56 13.3 65 65 W 7 11 29.88 1012 10 16 0.00 0.00
2:53 am 02:53 Clear 68 20 58 14.4 70 70 W 7 11 29.87 1012 10 16 0.00 0.00
3:53 am 03:53 Clear 66 18.9 57 13.9 73 73 WNW 7 11 29.88 1012 10 16 0.00 0.00
4:53 am 04:53 Clear 66 18.9 58 14.4 75 75 WNW 7 11 29.89 1012 10 16 0.00 0.00
5:53 am 05:53 Sunny 65 18.3 58 14.4 78 78 WNW 6 9 29.90 1013 10 16 0.00 0.00
6:53 am 06:53 Sunny 68 20 59 15 73 73 W 6 9 29.92 1013 10 16 0.00 0.00
7:53 am 07:53 Sunny 72 22.2 59 15 64 64 WNW 9 15 29.92 1013 10 16 0.00 0.00
8:53 am 08:53 Sunny 75 23.9 59 15 58 58 WNW 9 15 29.92 1013 10 16 0.00 0.00
9:53 am 09:53 Sunny 78 25.6 59 15 52 52 NW 9 15 29.92 1013 10 16 0.00 0.00
10:53 am 10:53 Mostly Sunny 81 27.2 58 14.4 45 45 WNW 13 20 29.92 1013 10 16 0.00 0.00
11:53 am 11:53 Mostly Sunny 83 28.3 57 13.9 41 41 W 14 22 29.92 1013 10 16 0.00 0.00
12:53 pm 12:53 Partly Cloudy 84 28.9 55 12.8 37 37 WNW 9 15 29.91 1013 10 16 0.00 0.00
1:53 pm 13:53 Partly Cloudy 83 28.3 54 12.2 37 37 WNW 15 24 29.91 1013 10 16 0.00 0.00
2:53 pm 14:53 Partly Cloudy 87 30.6 51 10.6 29 29 WNW 18 30 29.89 1012 10 16 0.00 0.00
3:53 pm 15:53 Mostly Cloudy 87 30.6 54 12.2 32 32 W 15 24 29.89 1012 10 16 0.00 0.00
4:53 pm 16:53 Mostly Cloudy 84 28.9 54 12.2 36 36 NW 13 20 29.87 1011 10 16 0.00 0.00
5:53 pm 17:53 Mostly Cloudy 85 29.4 54 12.2 35 35 W 16 26 29.85 1011 10 16 0.00 0.00
6:53 pm 18:53 Mostly Cloudy 83 28.3 54 12.2 37 37 W 12 19 29.85 1011 10 16 0.00 0.00
7:41 pm 19:41 Cloudy with Nearby Thunderstorms 68 20 60 15.6 76 76 VRB 6 9 29.87 1011 6 10 0.02 0.51
7:53 pm 19:53 Cloudy with Nearby Thunderstorms 71 21.7 62 16.7 73 73 SSW 6 9 29.86 1011 6 10 0.03 0.76
8:08 pm 20:08 Mostly Cloudy 73 22.8 64 17.8 74 74 Calm 29.83 1010 10 16 0.00 0.00
8:53 pm 20:53 Mostly Cloudy 70 21.1 63 17.2 79 79 E 9 15 29.87 1012 10 16 0.00 0.00
9:00 pm 21:00 Mostly Cloudy with Nearby Thunderstorms 70 21.1 62 16.7 76 76 undefined N/A 29.92 1013 10 16 0.00 0.00
9:13 pm 21:13 Mostly Cloudy with Thunderstorms 65 18.3 57 13.9 76 76 N 18 30 29.92 1013 3 5 0.15 3.81
9:35 pm 21:35 Mostly Cloudy with Nearby Thunderstorms 67 19.4 60 15.6 79 79 S 9 15 29.88 1012 6 10 0.25 6.35
9:53 pm 21:53 Mostly Cloudy with Light Rain 67 19.4 59 15 76 76 NW 7 11 29.89 1012 6 10 0.33 8.38
10:53 pm 22:53 Mostly Clear 66 18.9 61 16.1 84 84 WSW 3 6 29.91 1013 10 16 0.02 0.51
11:53 pm 23:53 Mostly Clear 64 17.8 61 16.1 90 90 NNE 5 7 29.93 1013 10 16 0.00 0.00

Powered by AerisWeather